TimeEDT,TemperatureF,Dew PointF,Humidity,Sea Level PressureIn,VisibilityMPH,Wind Direction,Wind SpeedMPH,Gust SpeedMPH,PrecipitationIn,Events,Conditions,WindDirDegrees,DateUTC
12:13 AM,33.8,33.8,100,30.24,10.0,Calm,Calm,-,N/A,,Clear,0,2011-10-02 04:13:00
12:33 AM,33.8,33.8,100,30.24,10.0,Calm,Calm,-,N/A,,Clear,0,2011-10-02 04:33:00
12:54 AM,33.8,33.8,100,30.24,10.0,Calm,Calm,-,N/A,,Clear,0,2011-10-02 04:54:00
1:13 AM,33.8,33.8,100,30.24,10.0,Calm,Calm,-,N/A,,Clear,0,2011-10-02 05:13:00
1:54 AM,33.8,32.0,93,30.24,10.0,Calm,Calm,-,N/A,,Clear,0,2011-10-02 05:54:00
2:13 AM,33.8,32.0,93,30.24,10.0,Calm,Calm,-,N/A,,Clear,0,2011-10-02 06:13:00
2:34 AM,32.0,32.0,100,30.24,10.0,Calm,Calm,-,N/A,,Clear,0,2011-10-02 06:34:00
2:53 AM,32.0,32.0,100,30.24,10.0,Calm,Calm,-,N/A,,Clear,0,2011-10-02 06:53:00
3:13 AM,32.0,32.0,100,30.24,10.0,Calm,Calm,-,N/A,,Clear,0,2011-10-02 07:13:00
3:34 AM,32.0,32.0,100,30.23,10.0,Calm,Calm,-,N/A,,Clear,0,2011-10-02 07:34:00
3:54 AM,32.0,32.0,100,30.22,10.0,Calm,Calm,-,N/A,,Clear,0,2011-10-02 07:54:00
4:13 AM,32.0,32.0,100,30.22,10.0,Calm,Calm,-,N/A,,Clear,0,2011-10-02 08:13:00
4:33 AM,32.0,32.0,100,30.23,10.0,Calm,Calm,-,N/A,,Clear,0,2011-10-02 08:33:00
4:54 AM,32.0,32.0,100,30.23,10.0,North,3.5,-,N/A,,Clear,10,2011-10-02 08:54:00
5:13 AM,32.0,32.0,100,30.23,10.0,NNE,3.5,-,N/A,,Clear,30,2011-10-02 09:13:00
5:33 AM,32.0,32.0,100,30.23,10.0,Calm,Calm,-,N/A,,Clear,0,2011-10-02 09:33:00
5:54 AM,32.0,32.0,100,30.24,10.0,Calm,Calm,-,N/A,,Clear,0,2011-10-02 09:54:00
6:13 AM,32.0,32.0,100,30.24,10.0,Calm,Calm,-,N/A,,Clear,0,2011-10-02 10:13:00
6:33 AM,32.0,32.0,100,30.23,10.0,Calm,Calm,-,N/A,,Clear,0,2011-10-02 10:33:00
6:54 AM,32.0,32.0,100,30.23,10.0,Calm,Calm,-,N/A,,Clear,0,2011-10-02 10:54:00
7:13 AM,32.0,32.0,100,30.23,10.0,Calm,Calm,-,N/A,,Clear,0,2011-10-02 11:13:00
7:33 AM,32.0,30.2,93,30.23,10.0,Calm,Calm,-,N/A,,Clear,0,2011-10-02 11:33:00
7:54 AM,32.0,32.0,100,30.23,10.0,Calm,Calm,-,N/A,,Clear,0,2011-10-02 11:54:00
8:14 AM,32.0,32.0,100,30.23,10.0,Calm,Calm,-,N/A,,Clear,0,2011-10-02 12:14:00
8:33 AM,32.0,32.0,100,30.23,10.0,Calm,Calm,-,N/A,,Clear,0,2011-10-02 12:33:00
9:13 AM,35.6,35.6,100,30.23,10.0,Calm,Calm,-,N/A,,Clear,0,2011-10-02 13:13:00
9:33 AM,39.2,37.4,93,30.23,10.0,Calm,Calm,-,N/A,,Clear,0,2011-10-02 13:33:00
9:54 AM,44.6,37.4,76,30.23,10.0,NNW,9.2,-,N/A,,Clear,330,2011-10-02 13:54:00
10:13 AM,46.4,39.2,76,30.23,10.0,NNW,11.5,-,N/A,,Clear,340,2011-10-02 14:13:00
10:33 AM,48.2,41.0,76,30.22,10.0,NNW,15.0,20.7,N/A,,Clear,340,2011-10-02 14:33:00
10:54 AM,50.0,41.0,71,30.22,10.0,NNW,12.7,18.4,N/A,,Clear,330,2011-10-02 14:54:00
11:13 AM,51.8,39.2,62,30.22,10.0,NNW,13.8,20.7,N/A,,Clear,340,2011-10-02 15:13:00
11:33 AM,51.8,39.2,62,30.22,10.0,North,10.4,17.3,N/A,,Clear,360,2011-10-02 15:33:00
11:54 AM,53.6,37.4,54,30.21,10.0,NNW,13.8,20.7,N/A,,Clear,340,2011-10-02 15:54:00
12:13 PM,53.6,37.4,54,30.21,10.0,NNW,11.5,17.3,N/A,,Clear,330,2011-10-02 16:13:00
12:34 PM,55.4,37.4,51,30.20,10.0,NNW,8.1,17.3,N/A,,Clear,340,2011-10-02 16:34:00
12:54 PM,55.4,37.4,51,30.19,10.0,NNW,10.4,-,N/A,,Clear,330,2011-10-02 16:54:00
1:13 PM,57.2,37.4,48,30.19,10.0,North,10.4,16.1,N/A,,Clear,350,2011-10-02 17:13:00
1:34 PM,57.2,35.6,44,30.18,10.0,NNW,12.7,-,N/A,,Clear,340,2011-10-02 17:34:00
1:54 PM,57.2,35.6,44,30.17,10.0,NNW,12.7,-,N/A,,Clear,330,2011-10-02 17:54:00
2:13 PM,59.0,35.6,42,30.15,10.0,NNW,12.7,20.7,N/A,,Clear,330,2011-10-02 18:13:00
2:53 PM,59.0,33.8,39,30.13,10.0,NW,12.7,17.3,N/A,,Clear,320,2011-10-02 18:53:00
3:13 PM,59.0,35.6,42,30.13,10.0,NNW,10.4,18.4,N/A,,Clear,330,2011-10-02 19:13:00
3:53 PM,60.8,35.6,39,30.12,10.0,NW,10.4,18.4,N/A,,Clear,310,2011-10-02 19:53:00
4:14 PM,60.8,35.6,39,30.12,10.0,NNW,11.5,18.4,N/A,,Clear,330,2011-10-02 20:14:00
4:33 PM,62.6,35.6,37,30.11,10.0,WNW,10.4,18.4,N/A,,Clear,290,2011-10-02 20:33:00
4:53 PM,62.6,35.6,37,30.11,10.0,NW,10.4,18.4,N/A,,Clear,320,2011-10-02 20:53:00
5:33 PM,60.8,35.6,39,30.11,10.0,NW,10.4,-,N/A,,Clear,310,2011-10-02 21:33:00
6:33 PM,59.0,37.4,45,30.11,10.0,WNW,13.8,-,N/A,,Clear,300,2011-10-02 22:33:00
6:53 PM,57.2,37.4,48,30.11,10.0,NW,12.7,-,N/A,,Clear,310,2011-10-02 22:53:00
7:14 PM,55.4,35.6,47,30.12,10.0,NW,6.9,-,N/A,,Clear,320,2011-10-02 23:14:00
7:53 PM,51.8,35.6,54,30.11,10.0,NW,8.1,-,N/A,,Clear,310,2011-10-02 23:53:00
8:13 PM,50.0,35.6,58,30.11,10.0,North,4.6,-,N/A,,Clear,350,2011-10-03 00:13:00
8:33 PM,50.0,37.4,62,30.12,10.0,NNW,4.6,-,N/A,,Clear,330,2011-10-03 00:33:00
8:53 PM,46.4,37.4,71,30.12,10.0,NW,4.6,-,N/A,,Clear,310,2011-10-03 00:53:00
9:13 PM,46.4,37.4,71,30.12,10.0,NW,4.6,-,N/A,,Clear,310,2011-10-03 01:13:00
9:33 PM,46.4,37.4,71,30.13,10.0,Calm,Calm,-,N/A,,Clear,0,2011-10-03 01:33:00
9:53 PM,42.8,37.4,81,30.12,10.0,NW,4.6,-,N/A,,Clear,310,2011-10-03 01:53:00
10:13 PM,42.8,37.4,81,30.13,10.0,NW,3.5,-,N/A,,Clear,310,2011-10-03 02:13:00
10:33 PM,41.0,37.4,87,30.14,10.0,Calm,Calm,-,N/A,,Clear,0,2011-10-03 02:33:00
11:13 PM,41.0,35.6,81,30.14,10.0,Calm,Calm,-,N/A,,Clear,0,2011-10-03 03:13:00
11:33 PM,42.8,37.4,81,30.14,10.0,Calm,Calm,-,N/A,,Clear,0,2011-10-03 03:33:00
11:54 PM,39.2,37.4,93,30.13,10.0,Calm,Calm,-,N/A,,Clear,0,2011-10-03 03:54:00